Weather History for Laurinburg-Maxton, NC

Change the Weather History Date:

Thursday, February 16, 2012

  Actual Average (KLBT) Record (KLBT)
Temperature  
Mean Temperature 48 °F 47 °F  
Max Temperature 57 °F 58 °F 78 °F (2001)
Min Temperature 39 °F 36 °F 22 °F (2007)
Degree Days  
Heating Degree Days 17 18  
Month to date heating degree days 312  
Since 1 July heating degree days 2031  
Cooling Degree Days 0 0  
Month to date cooling degree days 0  
Year to date cooling degree days 1  
Moisture  
Dew Point 49 °F    
Average Humidity 93    
Maximum Humidity 100    
Minimum Humidity 71    
Precipitation  
Precipitation 0.05 in 0.12 in 0.64 in (2003)
Month to date precipitation 1.53  
Year to date precipitation 4.50  
Sea Level Pressure  
Sea Level Pressure 30.10 in    
Wind  
Wind Speed 4 mph (NW)    
Max Wind Speed 10 mph    
Max Gust Speed -    
Visibility 5 miles    
Events Fog , Rain    
T = Trace of Precipitation, MM = Missing Value Source: NWS Daily Summary

Daily Weather History Graph

Daily Weather History Graph

Search for Another Location

Airport:

Trip Planner

Search our weather history database for the weather conditions in past years. The results will help you decide how hot, cold, wet, or windy it might be!

Date:

Astronomy

Feb. 16, 2012 Rise Set
Actual Time 7:02 AM EST 6:00 PM EST
Civil Twilight 6:36 AM EST 6:26 PM EST
Nautical Twilight 6:07 AM EST 6:56 PM EST
Astronomical Twilight 5:37 AM EST 7:25 PM EST
Moon 2:48 AM EST (2/16) 12:58 PM EST (2/16)
Length of Visible Light 11h 49m
Length of Day
10h 58m
Waning Crescent, 28% of the Moon is Illuminated
Feb 16
Waning Crescent
Feb 21
New
Feb 29
First Quarter
Mar 8
Full
Mar 14
Last Quarter

Hourly Weather History & Observations

Time (EST) Temp. Windchill Dew Point Humidity Pressure Visibility Wind Dir Wind Speed Gust Speed Precip Events Conditions
12:52 AM 41.0 °F - 35.1 °F 79% 30.29 in 10.0 mi Calm Calm - N/A   Clear
1:52 AM 44.1 °F - 37.9 °F 79% 30.27 in 10.0 mi Calm Calm - N/A   Clear
2:52 AM 39.9 °F 36.7 °F 37.0 °F 89% 30.24 in 10.0 mi NE 4.6 mph - N/A   Clear
3:52 AM 41.0 °F 39.0 °F 37.9 °F 89% 30.23 in 9.0 mi ENE 3.5 mph - N/A   Clear
4:52 AM 39.9 °F 37.8 °F 36.0 °F 86% 30.23 in 9.0 mi ENE 3.5 mph - N/A   Clear
5:52 AM 42.1 °F 40.2 °F 39.0 °F 89% 30.24 in 8.0 mi NE 3.5 mph - N/A   Clear
6:52 AM 43.0 °F 41.3 °F 39.9 °F 89% 30.24 in 9.0 mi NE 3.5 mph - N/A   Mostly Cloudy
7:52 AM 45.0 °F 42.6 °F 41.0 °F 86% 30.24 in 9.0 mi ENE 4.6 mph - N/A   Overcast
8:43 AM 48.2 °F - 41.0 °F 76% 30.25 in 10.0 mi Calm Calm - N/A   Overcast
8:52 AM 48.0 °F - 39.9 °F 74% 30.24 in 10.0 mi ESE 4.6 mph - N/A   Overcast
9:52 AM 48.9 °F - 39.9 °F 71% 30.18 in 10.0 mi East 10.4 mph - N/A   Overcast
10:02 AM 48.2 °F - 41.0 °F 76% 30.20 in 10.0 mi SE 5.8 mph - N/A   Overcast
10:20 AM 50.0 °F - 42.8 °F 76% 30.19 in 8.0 mi ESE 8.1 mph - 0.00 in Rain Light Rain
10:52 AM 48.9 °F - 45.0 °F 86% 30.18 in 4.0 mi SE 6.9 mph - 0.02 in Rain Light Rain
11:52 AM 51.1 °F - 48.9 °F 92% 30.15 in 10.0 mi SSE 6.9 mph - 0.00 in   Overcast
12:52 PM 53.1 °F - 51.1 °F 93% 30.11 in 6.0 mi SE 10.4 mph - N/A   Overcast
1:18 PM 53.6 °F - 51.8 °F 94% 30.09 in 7.0 mi SSE 6.9 mph - 0.01 in   Overcast
1:32 PM 53.6 °F - 53.6 °F 100% 30.07 in 6.0 mi SSE 4.6 mph - 0.01 in   Overcast
1:52 PM 55.0 °F - 54.0 °F 96% 30.06 in 5.0 mi SSE 5.8 mph - 0.01 in   Overcast
2:03 PM 55.4 °F - 53.6 °F 94% 30.05 in 4.0 mi SSE 5.8 mph - 0.00 in Rain Light Rain
2:17 PM 55.4 °F - 53.6 °F 94% 30.05 in 2.5 mi SSE 8.1 mph - 0.02 in Rain Rain
2:30 PM 55.4 °F - 53.6 °F 94% 30.04 in 6.0 mi SSE 8.1 mph - 0.02 in   Overcast
2:52 PM 55.9 °F - 55.0 °F 97% 30.04 in 5.0 mi SSE 5.8 mph - 0.02 in   Overcast
3:52 PM 55.9 °F - 55.0 °F 97% 30.01 in 5.0 mi SSW 3.5 mph - N/A   Overcast
4:52 PM 57.0 °F - 55.9 °F 96% 30.00 in 3.0 mi SSW 4.6 mph - N/A   Overcast
5:23 PM 57.2 °F - 55.4 °F 94% 30.01 in 2.5 mi WSW 4.6 mph - N/A   Overcast
5:52 PM 57.0 °F - 55.9 °F 96% 30.01 in 2.5 mi West 4.6 mph - N/A   Overcast
6:00 PM 57.2 °F - 55.4 °F 94% 30.01 in 4.0 mi West 4.6 mph - N/A   Overcast
6:26 PM 57.2 °F - 57.2 °F 100% 30.02 in 1.8 mi WNW 5.8 mph - N/A   Overcast
6:50 PM 57.2 °F - 57.2 °F 100% 30.02 in 1.5 mi WNW 3.5 mph - N/A   Overcast
6:52 PM 57.0 °F - 57.0 °F 100% 30.02 in 1.5 mi WNW 4.6 mph - N/A   Overcast
7:20 PM 57.2 °F - 55.4 °F 94% 30.03 in 2.0 mi North 6.9 mph - N/A   Overcast
7:52 PM 55.9 °F - 55.0 °F 97% 30.03 in 3.0 mi North 6.9 mph - N/A   Overcast
8:27 PM 55.4 °F - 53.6 °F 94% 30.05 in 10.0 mi NNW 5.8 mph - N/A   Overcast
8:52 PM 54.0 °F - 53.1 °F 97% 30.04 in 10.0 mi North 4.6 mph - N/A   Overcast
9:38 PM 53.6 °F - 51.8 °F 94% 30.05 in 9.0 mi Calm Calm - N/A   Scattered Clouds
9:52 PM 52.0 °F - 52.0 °F 100% 30.05 in 1.2 mi Calm Calm - N/A   Clear
9:54 PM 51.8 °F - 51.8 °F 100% 30.05 in 0.5 mi Calm Calm - N/A Fog Fog
10:11 PM 51.8 °F - 50.0 °F 94% 30.05 in 0.2 mi West 3.5 mph - N/A Fog Fog
10:33 PM 50.0 °F - 50.0 °F 100% 30.06 in 1.0 mi WNW 4.6 mph - N/A   Mist
10:36 PM 50.0 °F - 50.0 °F 100% 30.06 in 2.0 mi NW 4.6 mph - N/A   Partly Cloudy
10:43 PM 50.0 °F - 50.0 °F 100% 30.05 in 6.0 mi WNW 4.6 mph - N/A   Clear
10:50 PM 51.8 °F - 51.8 °F 100% 30.05 in 2.5 mi NW 5.8 mph - N/A   Scattered Clouds
10:51 PM 51.1 °F - 51.1 °F 100% 30.05 in 2.0 mi NW 5.8 mph - N/A   Scattered Clouds
10:53 PM 51.8 °F - 51.8 °F 100% 30.05 in 1.0 mi WNW 5.8 mph - N/A   Mist
10:56 PM 51.8 °F - 51.8 °F 100% 30.05 in 0.5 mi WNW 4.6 mph - N/A Fog Fog
11:36 PM 51.8 °F - 51.8 °F 100% 30.05 in 1.0 mi NW 3.5 mph - N/A   Mist
11:47 PM 51.8 °F - 51.8 °F 100% 30.04 in 0.5 mi NW 3.5 mph - N/A Fog Fog
11:52 PM 52.0 °F - 52.0 °F 100% 30.04 in 0.5 mi NW 3.5 mph - N/A Fog Fog